Regional Weather Roundup
Issued by NWS Albany, NY

Home | Current Version | Previous Version | Text Only | Print | Product List | Glossary On
Versions: 1 2 3 4 5 6 7 8 9 10 11 12 13 14 15 16 17 18 19 20 21 22 23 24 25 26 27 28 29 30 31 32 33 34 35 36 37 38 39 40 41 42 43 44 45 46 47 48 49 50
000
ASUS41 KALY 040810
RWRALY

NEW YORK STATE HOURLY WEATHER ROUNDUP
NATIONAL WEATHER SERVICE ALBANY NY
400 AM EDT SAT JUL 04 2015

NOTE: "FAIR" INDICATES FEW OR NO CLOUDS BELOW 12,000 FEET WITH NO
SIGNIFICANT WEATHER AND/OR NO OBSTRUCTIONS TO VISIBILITY.

NYZ032-033-038>043-046>054-057>066-NYZ062>081-040900-
EAST


CITY           SKY/WX    TMP DP  RH WIND       PRES   REMARKS
ALBANY         CLOUDY    59  53  80 CALM      29.97S
GLENS FALLS    CLOUDY    56  53  90 CALM      29.97F
POUGHKEEPSIE   CLOUDY    62  57  83 CALM      29.96S
NEWBURGH       MOCLDY    66  61  82 CALM      29.98S
MONTGOMERY     CLOUDY    63  59  87 CALM      29.96F
WHITE PLAINS   DRIZZLE   65  60  84 CALM      29.97S
ISLIP          CLOUDY    66  61  84 CALM      29.96F
NEW YORK CITY  CLOUDY    71  56  58 S5        29.96S
CENTRAL PARK   CLOUDY    71  58  63 SE3       29.99S
$$

NYZ005>009-017-018-044>046-055-056-040900-
CENTRAL


CITY           SKY/WX    TMP DP  RH WIND       PRES   REMARKS
FULTON         CLOUDY    62  53  72 VRB3      29.90F
SYRACUSE       CLOUDY    60  56  86 E7        29.90F
ROME           CLOUDY    57  51  80 SE3       29.95S
ELMIRA         CLOUDY    62  61  96 CALM      29.92S
BINGHAMTON     LGT RAIN  62  58  86 S3        29.95F
MONTICELLO     CLOUDY    61  54  77 E3        29.99F
$$

NYZ026>034-041>043-040900-
NORTH


CITY           SKY/WX    TMP DP  RH WIND       PRES   REMARKS
WATERTOWN      CLOUDY    56  50  80 E6        29.90F
FORT DRUM      NOT AVBL
MASSENA        MOCLDY    51  49  92 CALM      29.94F
SARANAC LAKE   MOCLDY    44  43  96 CALM      29.97F
PLATTSBURGH    PTCLDY    53  51  93 CALM      29.95F
$$

NYZ001>004-010>016-019>021-040900-
WEST


CITY           SKY/WX    TMP DP  RH WIND       PRES   REMARKS
NIAGARA FALLS  PTCLDY    59  46  62 N3        29.89F
BUFFALO        MOCLDY    59  51  75 CALM      29.89S
DUNKIRK        MOCLDY    58  56  93 CALM      29.89S
JAMESTOWN      CLOUDY    61  54  77 S5        29.93S
WELLSVILLE     CLOUDY    62  59  90 S6        29.96S FOG
ROCHESTER      CLOUDY    62  51  67 CALM      29.89F
PENN YAN       CLOUDY    63  59  87 S5        29.91F
$$

             KEY
       WCI = WIND CHILL INDEX
       VSB = VISIBILITY
       HX  = HEAT INDEX
$$



USA.gov is the U.S. government's official web portal to all federal, state and local government web resources and services.